Find Starlink 35095

NORAD ID: 65425 Int'l Des: 2025-192 Owner: SPXS Country: US Constellation: starlink operational
LEOCIRCULAR

Current View

Loading 3D Globe...

About Starlink 35095

Description loading...

Upcoming Passes

Passes for default location (London). Set your location on the main map for personalized predictions.

Altitude History

Loading altitude history...

Two-Line Element Set

1 65425U 25192X 26150.33273183 .00035129 00000-0 11382-2 0 9992
2 65425 53.1575 213.1604 0001329 108.2986 251.8160 15.31705715 41885
Epoch: May 30, 2026 • Age: 19 hours

Current Status

Altitude 471.8 km
Velocity 7.63 km/s
Sub-Earth Point 28.69°N, 59.13°W
Launch Date Aug 31, 2025
Age 0.7 years
Type internet

Technical Details

Classification Payload
Mass 575.00 kg
Dry Mass 530.00 kg
Total Mass 575.00 kg
Length 0.30 m
Diameter 4.10 m
Span 29.00 m
Shape Box + pan
Manufacturer SPXS
Bus Type Starlink V2MO
Phase Status In Orbit
Owner/State SPXS/US

Most Searched